Hourly Weather Bolshie Kushmany

Today, 23 July, Friday

Time Temperature Precipitation Wind Pressure Humidity
00:00 +14°C° 0 mm 2 mps 742 mmHg 87%
01:00 +14°C° 0 mm 2 mps 742 mmHg 86%
02:00 +13°C° 0 mm 2 mps 742 mmHg 85%
03:00 +13°C° 0 mm 2 mps 742 mmHg 84%
04:00 +13°C° 0 mm 2 mps 742 mmHg 83%
05:00 +14°C° 0 mm 2 mps 742 mmHg 82%
06:00 +15°C° 0 mm 2 mps 742 mmHg 81%
07:00 +16°C° 0 mm 3 mps 742 mmHg 72%
08:00 +18°C° 0 mm 3 mps 742 mmHg 62%
09:00 +19°C° 0 mm 4 mps 742 mmHg 52%
10:00 +20°C° 0 mm 4 mps 742 mmHg 48%
11:00 +21°C° 0 mm 4 mps 742 mmHg 44%
12:00 +22°C° 0 mm 4 mps 742 mmHg 40%
13:00 +22°C° 0 mm 3 mps 742 mmHg 39%
14:00 +24°C° 0 mm 3 mps 742 mmHg 39%
15:00 +24°C° 0 mm 3 mps 742 mmHg 38%
16:00 +22°C° 0 mm 3 mps 742 mmHg 45%
17:00 +21°C° 0 mm 3 mps 742 mmHg 51%
18:00 +20°C° 0 mm 2 mps 742 mmHg 58%
19:00 +19°C° 0 mm 2 mps 742 mmHg 59%
20:00 +18°C° 0 mm 2 mps 742 mmHg 60%
21:00 +18°C° 0 mm 2 mps 742 mmHg 62%
22:00 +17°C° 0 mm 2 mps 742 mmHg 66%
23:00 +16°C° 0 mm 2 mps 742 mmHg 70%

Tomorrow, 24 July, Saturday

Time Temperature Precipitation Wind Pressure Humidity
00:00 +15°C° 0 mm 2 mps 742 mmHg 74%
01:00 +15°C° 0 mm 2 mps 742 mmHg 76%
02:00 +14°C° 0 mm 2 mps 742 mmHg 78%
03:00 +14°C° 0 mm 2 mps 742 mmHg 80%
04:00 +14°C° 0 mm 3 mps 742 mmHg 80%
05:00 +14°C° 0 mm 3 mps 743 mmHg 81%
06:00 +14°C° 0 mm 4 mps 743 mmHg 81%
07:00 +17°C° 0 mm 4 mps 743 mmHg 76%
08:00 +18°C° 0 mm 4 mps 743 mmHg 70%
09:00 +19°C° 0 mm 5 mps 744 mmHg 64%
10:00 +19°C° 0.1 mm 5 mps 744 mmHg 62%
11:00 +20°C° 0.1 mm 5 mps 744 mmHg 60%
12:00 +20°C° 0.1 mm 5 mps 745 mmHg 58%
13:00 +20°C° 0.2 mm 5 mps 745 mmHg 58%
14:00 +20°C° 0.2 mm 5 mps 746 mmHg 57%
15:00 +20°C° 0.2 mm 4 mps 746 mmHg 56%
16:00 +20°C° 0 mm 4 mps 746 mmHg 57%
17:00 +19°C° 0 mm 3 mps 747 mmHg 57%
18:00 +19°C° 0 mm 3 mps 747 mmHg 58%
19:00 +18°C° 0 mm 3 mps 748 mmHg 60%
20:00 +16°C° 0 mm 2 mps 748 mmHg 62%
21:00 +15°C° 0 mm 2 mps 749 mmHg 63%
22:00 +14°C° 0 mm 2 mps 749 mmHg 64%
23:00 +13°C° 0 mm 2 mps 750 mmHg 65%

Day after tomorrow, 25 July, Sunday

Time Temperature Precipitation Wind Pressure Humidity
00:00 +12°C° 0 mm 2 mps 750 mmHg 65%
01:00 +10°C° 0 mm 2 mps 751 mmHg 65%
02:00 +10°C° 0 mm 2 mps 751 mmHg 64%
03:00 +9°C° 0 mm 2 mps 751 mmHg 63%
04:00 +10°C° 0 mm 2 mps 752 mmHg 60%
05:00 +12°C° 0 mm 2 mps 752 mmHg 58%
06:00 +13°C° 0 mm 2 mps 753 mmHg 56%
07:00 +14°C° 0 mm 2 mps 753 mmHg 51%
08:00 +16°C° 0 mm 2 mps 753 mmHg 45%
09:00 +18°C° 0 mm 2 mps 754 mmHg 40%
10:00 +19°C° 0 mm 3 mps 754 mmHg 38%
11:00 +20°C° 0 mm 3 mps 754 mmHg 36%
12:00 +20°C° 0 mm 3 mps 754 mmHg 35%
13:00 +21°C° 0 mm 3 mps 754 mmHg 35%
14:00 +21°C° 0 mm 3 mps 754 mmHg 35%
15:00 +22°C° 0 mm 3 mps 754 mmHg 35%
16:00 +21°C° 0 mm 2 mps 754 mmHg 40%
17:00 +21°C° 0 mm 2 mps 754 mmHg 44%
18:00 +22°C° 0 mm 1 mps 754 mmHg 49%
19:00 +20°C° 0 mm 1 mps 754 mmHg 50%
20:00 +19°C° 0 mm 1 mps 755 mmHg 51%
21:00 +16°C° 0 mm 1 mps 755 mmHg 51%
22:00 +15°C° 0 mm 1 mps 755 mmHg 53%
23:00 +14°C° 0 mm 1 mps 755 mmHg 55%

26 July, Monday

Time Temperature Precipitation Wind Pressure Humidity
00:00 +13°C° 0 mm 1 mps 755 mmHg 57%
01:00 +14°C° 0 mm 1 mps 755 mmHg 56%
02:00 +14°C° 0 mm 1 mps 755 mmHg 55%
03:00 +14°C° 0 mm 1 mps 756 mmHg 53%
04:00 +15°C° 0 mm 2 mps 756 mmHg 55%
05:00 +15°C° 0 mm 2 mps 756 mmHg 57%
06:00 +15°C° 0 mm 2 mps 756 mmHg 59%
07:00 +17°C° 0 mm 3 mps 756 mmHg 54%
08:00 +19°C° 0 mm 4 mps 756 mmHg 48%
09:00 +21°C° 0 mm 4 mps 756 mmHg 43%
10:00 +22°C° 0 mm 4 mps 756 mmHg 41%
11:00 +23°C° 0 mm 5 mps 756 mmHg 39%
12:00 +25°C° 0 mm 5 mps 756 mmHg 37%
13:00 +25°C° 0 mm 5 mps 756 mmHg 38%
14:00 +25°C° 0 mm 4 mps 755 mmHg 40%
15:00 +25°C° 0 mm 4 mps 755 mmHg 42%
16:00 +24°C° 0 mm 3 mps 755 mmHg 46%
17:00 +22°C° 0 mm 3 mps 755 mmHg 50%
18:00 +23°C° 0 mm 2 mps 755 mmHg 54%
19:00 +20°C° 0 mm 2 mps 755 mmHg 57%
20:00 +19°C° 0 mm 1 mps 755 mmHg 59%
21:00 +18°C° 0 mm 1 mps 755 mmHg 62%
22:00 +18°C° 0 mm 1 mps 755 mmHg 60%
23:00 +17°C° 0 mm 2 mps 755 mmHg 59%

27 July, Tuesday

Time Temperature Precipitation Wind Pressure Humidity
00:00 +17°C° 0 mm 2 mps 755 mmHg 58%
01:00 +16°C° 0 mm 2 mps 755 mmHg 59%
02:00 +16°C° 0 mm 2 mps 755 mmHg 60%
03:00 +15°C° 0 mm 2 mps 754 mmHg 61%
04:00 +16°C° 0 mm 2 mps 754 mmHg 61%
05:00 +16°C° 0 mm 2 mps 754 mmHg 61%
06:00 +17°C° 0 mm 2 mps 754 mmHg 62%
07:00 +18°C° 0 mm 3 mps 754 mmHg 58%
08:00 +20°C° 0 mm 3 mps 754 mmHg 55%
09:00 +21°C° 0 mm 4 mps 754 mmHg 51%
10:00 +22°C° 0 mm 4 mps 754 mmHg 48%
11:00 +25°C° 0 mm 5 mps 754 mmHg 45%
12:00 +26°C° 0 mm 5 mps 753 mmHg 42%
13:00 +26°C° 0 mm 5 mps 753 mmHg 43%
14:00 +26°C° 0 mm 5 mps 753 mmHg 44%
15:00 +25°C° 0 mm 5 mps 752 mmHg 44%
16:00 +23°C° 0.1 mm 4 mps 752 mmHg 52%
17:00 +22°C° 0.1 mm 3 mps 752 mmHg 59%
18:00 +21°C° 0.1 mm 3 mps 752 mmHg 66%
19:00 +20°C° 0 mm 2 mps 752 mmHg 71%
20:00 +19°C° 0 mm 2 mps 752 mmHg 76%
21:00 +18°C° 0 mm 1 mps 752 mmHg 81%
22:00 +18°C° 0 mm 1 mps 752 mmHg 82%
23:00 +16°C° 0 mm 1 mps 752 mmHg 83%

28 July, Wednesday

Time Temperature Precipitation Wind Pressure Humidity
00:00 +16°C° 0 mm 1 mps 752 mmHg 84%
01:00 +16°C° 0 mm 1 mps 752 mmHg 83%
02:00 +16°C° 0 mm 2 mps 752 mmHg 82%
03:00 +16°C° 0 mm 2 mps 752 mmHg 81%
04:00 +17°C° 0 mm 2 mps 752 mmHg 79%
05:00 +17°C° 0 mm 2 mps 752 mmHg 77%
06:00 +17°C° 0 mm 2 mps 752 mmHg 75%
07:00 +19°C° 0 mm 2 mps 752 mmHg 67%
08:00 +20°C° 0 mm 2 mps 752 mmHg 59%
09:00 +21°C° 0 mm 3 mps 752 mmHg 52%
10:00 +22°C° 0 mm 3 mps 752 mmHg 49%
11:00 +23°C° 0 mm 4 mps 752 mmHg 47%
12:00 +25°C° 0 mm 4 mps 752 mmHg 44%
13:00 +26°C° 0 mm 5 mps 751 mmHg 42%
14:00 +27°C° 0 mm 5 mps 751 mmHg 39%
15:00 +28°C° 0 mm 5 mps 750 mmHg 37%
16:00 +28°C° 0 mm 4 mps 750 mmHg 41%
17:00 +27°C° 0 mm 4 mps 750 mmHg 46%
18:00 +26°C° 0 mm 3 mps 749 mmHg 50%
19:00 +25°C° 0 mm 3 mps 749 mmHg 53%
20:00 +22°C° 0 mm 3 mps 749 mmHg 55%
21:00 +20°C° 0 mm 3 mps 749 mmHg 57%
22:00 +20°C° 0 mm 3 mps 749 mmHg 58%
23:00 +20°C° 0 mm 3 mps 749 mmHg 59%
Show more

We Need Your Consent

Meteoprog and our Service Providers may store and access personal data such as cookies, device identifiers or other similar technologies on your device and process such data to personalise content and ads, as well as provide social media features and to analyse the traffic.

  • Store and/or access information on your device

    Cookies, device identifiers or other information can be stored or accessed on your device for the purposes indicated above.

  • Personalised ads and content, ad and content measurement, audience insights, and products development

    Ads and content can be personalised based on a profile. More data can be added to better personalise ads and content. Ad and content performance can be measured. Insights about the audience who saw the ads and content can be derived. Such data can be used to develop or improve user’s experience, systems and software.

By clicking ‘I Agree’ you will allow the use of indicated cookies, device identifiers, web beacons or other similar technologies. Your settings can be changed in the browser on your device.

For certain purposes, legitimate interests may be relied on, rather than consent. You can read more about this in our Privacy and Cookie Policy.